GEFSMA_con_cape1000_162.txt.gz
Probability
65 71 71 74 65 71 68 71 71 77 71 61 55 45 52 52 52 55 45 48 45 52 55 55 55 58 65 61 61 65 55 52 55 52 48 48 42 48 52 48 45 55 55
58 61 68 68 68 65 68 68 65 68 68 74 61 48 52 52 48 48 35 32 39 35 45 52 45 42 45 42 48 48 55 48 48 48 48 45 42 42 45 39 42 42 35
65 65 68 68 68 68 65 68 68 65 61 48 55 48 45 52 42 39 32 26 29 35 39 42 39 39 39 42 35 39 45 45 39 32 39 35 39 42 39 32 32 32 29
58 61 65 65 68 68 68 65 65 61 58 48 45 45 35 35 39 32 29 29 26 23 32 32 32 35 35 32 32 32 32 39 35 39 35 29 26 26 23 23 23 26 23
52 55 58 58 65 65 65 52 48 52 45 35 42 35 29 23 32 19 26 26 29 32 19 19 26 29 35 23 26 26 29 32 29 26 26 26 29 26 16 16 16 10 13
52 55 52 55 58 58 48 52 45 52 42 42 16 13 19 19 23 26 23 23 23 19 19 10 13 16 16 23 26 26 23 26 29 26 16 19 26 23 10 10 3 10 10
42 48 39 48 55 45 45 35 39 35 42 35 23 16 16 16 16 19 16 13 13 13 13 19 19 13 6 16 13 16 16 19 19 23 19 13 16 13 6 6 3 3 3
35 29 42 45 39 52 45 42 35 35 32 26 19 10 3 10 16 10 13 13 13 13 13 6 13 6 3 3 3 6 10 13 16 13 13 10 13 10 3 3 3 3 3
29 29 32 35 35 39 35 29 26 29 26 19 16 10 3 3 10 13 10 6 6 6 6 10 13 6 3 0 0 0 6 6 6 10 13 6 6 3 3 3 3 3 3
26 26 29 29 29 26 26 19 16 23 16 13 16 13 13 13 3 3 10 6 6 6 6 6 6 6 0 0 0 0 0 0 3 6 6 3 6 3 0 3 3 3 3
19 23 26 26 29 26 19 23 19 23 16 10 10 6 10 10 10 3 0 6 6 6 6 6 6 3 0 6 3 0 0 0 0 0 3 3 3 3 3 0 3 3 3
16 16 19 23 23 26 23 19 19 13 13 10 6 6 6 6 6 3 0 0 0 6 6 6 6 3 0 0 0 0 0 0 0 0 0 3 3 3 3 0 0 0 0
16 13 13 13 16 19 23 19 13 10 10 10 6 6 6 3 3 6 3 0 0 0 3 3 3 3 0 0 0 0 0 0 0 0 0 0 0 3 3 0 0 0 0
0 6 6 6 10 13 13 13 16 6 6 6 6 6 6 3 3 3 0 3 0 0 0 0 0 0 0 0 0 0 0 0 0 0 0 0 0 0 0 0 0 0 0
3 3 3 6 10 10 10 10 13 10 6 6 6 10 10 6 3 3 3 3 0 0 0 0 0 0 0 0 0 0 0 0 0 0 0 0 0 0 0 0 0 0 0
13 6 3 3 3 6 10 10 13 3 3 6 6 3 6 10 0 3 6 6 3 0 0 0 0 0 0 0 0 0 0 0 0 0 0 0 0 0 0 0 0 0 0
3 3 3 3 3 6 10 6 3 3 0 0 0 0 0 3 3 3 0 0 0 0 0 0 0 0 0 0 0 0 0 0 0 0 0 0 0 0 0 0 0 0 0
3 3 3 3 3 0 0 0 0 0 0 0 0 0 0 0 0 0 0 0 0 0 0 0 0 0 0 0 0 3 0 0 0 0 0 0 0 0 0 0 0 0 0
6 3 3 0 0 0 0 0 0 0 0 0 0 0 0 0 0 0 0 0 0 0 0 0 0 0 0 0 0 0 0 0 0 0 0 0 0 0 0 0 0 0 0
3 3 0 0 0 0 0 0 0 0 0 0 0 0 0 0 0 0 0 0 0 0 0 0 0 0 0 0 0 0 0 0 0 0 0 0 0 0 0 0 0 0 0
3 3 0 0 0 0 0 0 0 0 0 0 0 0 0 0 0 0 0 0 0 0 0 0 0 0 0 0 0 0 0 0 3 0 0 0 0 0 0 0 0 0 0
0 0 0 0 0 0 0 0 0 0 0 0 0 0 0 0 0 0 0 0 0 0 0 0 0 0 0 0 0 0 0 0 0 0 0 0 0 0 0 0 0 0 0
0 0 0 0 0 0 0 0 0 0 0 3 3 3 0 0 0 0 0 0 0 0 0 0 0 0 0 0 0 0 0 0 0 0 0 0 0 0 0 0 0 0 0
0 0 0 0 3 0 0 0 0 0 3 0 0 0 0 3 0 0 0 0 3 0 0 0 0 3 0 0 0 0 0 0 0 0 0 0 0 0 0 0 0 0 0
0 0 0 0 3 3 0 0 0 0 3 0 0 0 0 0 0 0 0 0 3 3 0 0 0 0 0 0 0 0 0 0 0 0 3 0 0 0 0 3 0 0 0
0 0 0 0 0 0 0 0 0 0 0 0 0 0 0 0 0 0 0 0 3 3 0 0 0 0 0 0 0 0 0 0 0 0 3 0 0 0 0 0 0 0 0

GEFSMA_con_cape1000_168.txt.gz
Probability
16 13 16 16 19 6 10 10 16 16 19 16 16 10 10 6 10 6 3 45 55 48 52 42 48 52 61 58 58 65 55 55 61 65 61 55 52 52 52 45 42 42 48
13 10 16 16 10 10 3 3 6 10 6 6 6 6 13 6 6 13 3 13 45 45 42 45 42 48 52 48 48 58 55 52 48 55 48 48 52 52 48 52 52 45 42
13 16 13 10 6 10 6 0 3 3 3 6 3 3 3 0 3 3 3 6 13 29 29 39 39 42 42 42 39 48 48 45 42 45 45 39 42 39 39 39 39 35 29
13 13 13 13 10 10 3 3 3 3 3 0 0 0 0 0 0 0 0 3 6 6 10 29 26 26 26 32 29 29 39 39 39 42 42 39 32 32 29 32 35 32 32
19 13 16 6 10 10 3 6 3 0 0 0 0 0 0 0 0 0 0 0 3 3 3 10 16 23 23 16 23 19 29 26 29 39 32 32 26 26 23 23 26 23 19
19 16 6 6 6 6 3 0 0 0 0 0 0 0 0 0 0 0 0 0 0 0 3 3 3 6 13 13 13 13 19 23 23 23 23 23 26 23 16 13 10 13 16
23 16 6 3 3 3 3 3 0 0 0 0 0 0 0 0 0 0 0 0 0 0 0 3 3 3 6 13 13 16 13 19 23 23 19 19 13 10 10 10 0 0 3
13 10 3 3 3 3 3 0 0 0 0 0 0 0 0 0 0 0 0 0 0 0 0 0 3 3 3 0 3 10 13 16 16 19 16 16 13 10 6 10 3 0 3
13 10 10 3 3 0 0 0 0 0 0 0 0 0 0 0 0 0 0 0 0 3 0 0 3 3 3 0 0 0 6 6 13 13 13 13 6 3 0 6 3 0 0
10 10 6 6 3 0 0 0 3 3 3 0 0 0 0 0 0 0 0 0 0 0 0 0 3 3 0 0 0 0 0 0 0 3 10 6 6 3 3 3 3 0 0
10 10 13 6 6 3 3 6 3 0 0 0 0 0 0 0 0 0 0 0 0 0 0 3 3 3 0 0 0 0 0 0 0 0 3 3 3 3 3 6 0 0 0
6 6 6 3 3 3 3 3 0 0 0 0 0 0 0 0 0 0 0 0 0 0 0 0 3 3 0 0 0 0 0 0 0 0 0 0 0 3 6 3 0 3 3
3 3 3 3 3 3 0 0 0 0 0 0 0 0 0 0 0 0 0 0 0 0 0 0 0 3 0 0 0 0 0 0 0 0 0 0 0 0 0 3 3 3 3
0 0 0 0 3 0 0 0 0 0 0 0 0 0 0 0 0 0 0 0 0 0 0 0 0 0 0 0 0 0 0 0 0 0 0 0 0 0 0 0 0 3 3
0 0 0 0 0 0 0 0 0 0 0 0 0 0 0 0 0 0 0 0 0 0 0 0 0 0 0 0 0 0 0 0 0 0 0 0 0 0 0 0 0 0 0
0 0 0 0 0 0 0 0 0 0 0 0 0 0 0 0 0 0 0 0 0 0 0 0 0 0 0 0 0 0 0 0 0 0 0 0 0 0 0 0 0 0 0
0 0 0 0 0 0 0 0 0 0 0 0 0 0 0 0 0 0 0 0 0 0 0 0 0 0 0 0 0 0 0 0 0 0 0 0 0 0 0 0 0 0 0
0 0 0 0 0 0 0 0 0 0 0 0 0 0 0 0 0 0 0 0 0 0 0 0 0 0 0 0 0 0 0 0 0 0 0 0 0 0 0 0 0 0 0
0 0 0 0 0 0 0 0 0 0 0 0 0 0 0 0 0 0 0 0 0 0 0 0 0 0 0 0 0 0 0 0 0 0 0 0 0 0 0 0 0 0 0
0 0 0 0 0 0 0 0 0 0 0 0 0 0 0 0 0 0 0 0 0 0 0 0 0 0 0 0 0 0 0 0 0 0 0 0 0 0 0 0 0 0 0
0 0 0 0 0 0 0 0 0 0 0 0 0 0 0 0 0 0 0 0 0 0 0 0 0 0 0 0 0 0 0 0 0 0 0 0 0 0 0 0 0 0 0
0 0 0 0 0 0 0 0 0 0 0 0 0 0 0 0 0 0 0 0 0 0 0 0 0 0 0 0 0 0 0 0 0 0 0 0 0 0 0 0 0 0 0
0 0 0 0 0 0 0 0 0 0 0 0 0 0 0 0 0 0 0 0 0 0 0 0 0 0 0 0 0 0 0 0 0 0 0 0 0 0 0 0 0 0 0
0 0 0 0 0 0 0 0 0 0 0 0 0 0 0 0 0 0 0 0 0 0 0 0 0 0 0 0 0 0 0 0 0 0 0 0 0 0 0 0 0 0 0
0 0 0 0 0 0 0 0 0 0 0 0 0 0 0 0 0 0 0 0 0 0 0 0 0 0 0 0 0 0 0 0 0 0 0 0 0 0 0 0 0 0 0
0 0 0 0 0 0 0 0 0 0 0 0 0 0 0 0 0 0 0 0 0 0 0 0 0 0 0 0 0 0 0 0 0 0 0 0 0 0 0 0 0 0 0

GEFSMA_con_cape1000_174.txt.gz
Probability
26 16 13 13 16 23 19 19 23 16 13 13 23 26 26 13 16 16 10 32 58 58 58 52 52 58 48 48 48 55 55 55 65 65 65 55 58 55 58 58 48 52 52
16 13 13 13 10 10 16 19 13 13 10 10 6 13 13 13 10 16 16 19 35 45 55 52 52 45 45 48 42 48 39 35 42 45 48 52 52 42 48 52 52 48 39
16 16 13 6 6 3 0 10 3 0 0 0 0 3 3 10 6 6 3 6 19 26 39 42 48 48 39 29 35 35 35 35 42 42 39 39 45 35 29 35 35 42 39
10 10 6 3 3 3 3 3 0 0 0 0 0 0 3 3 0 0 0 3 6 6 16 32 32 32 29 35 39 32 26 29 29 32 32 35 35 35 32 32 32 26 29
6 6 6 3 3 0 0 0 0 0 0 0 0 0 0 0 0 0 3 3 0 3 3 10 13 26 26 23 29 35 26 23 23 26 26 26 35 29 35 29 19 19 19
3 3 3 3 3 0 0 0 0 0 0 0 0 0 0 0 0 0 0 0 0 0 0 3 6 10 13 13 16 16 19 26 29 26 23 19 39 26 13 10 10 10 13
3 3 3 0 0 0 0 0 0 0 0 0 0 0 0 0 0 0 0 0 0 0 0 0 3 6 6 10 10 13 13 13 16 16 23 23 19 23 10 6 6 6 0
0 3 3 0 0 0 0 0 0 0 0 0 0 0 0 0 0 0 0 0 0 0 0 0 0 3 3 0 3 13 13 10 6 13 19 19 16 16 16 6 6 6 3
0 0 0 0 0 0 0 0 0 0 0 0 0 0 0 0 0 0 0 0 0 0 0 0 0 0 0 0 0 3 13 6 6 6 10 13 10 10 10 3 3 6 6
0 3 0 0 0 0 0 0 0 0 0 0 0 0 0 0 0 0 0 0 0 0 0 0 0 0 0 3 0 0 0 0 0 6 6 6 6 6 6 0 3 6 6
0 6 6 3 3 0 0 0 0 0 0 0 0 0 0 0 0 0 0 0 0 0 0 0 0 0 0 3 0 0 0 0 0 0 3 3 0 6 3 0 3 3 3
0 3 3 3 6 3 0 0 0 0 0 0 0 0 0 0 0 0 0 0 0 0 0 0 0 0 3 3 3 0 0 0 0 0 0 0 0 3 3 0 3 3 3
0 0 3 3 3 3 0 0 0 0 0 0 0 0 0 0 0 0 0 0 0 0 0 0 0 0 0 3 3 0 0 0 0 0 0 0 0 0 3 0 0 3 3
0 0 0 0 0 0 0 0 0 0 0 0 0 0 0 0 0 0 0 0 0 0 0 0 0 0 0 0 0 0 0 0 0 0 0 0 0 0 0 0 0 0 0
0 0 0 0 0 0 0 0 0 0 0 0 0 0 0 0 0 0 0 0 0 0 0 0 0 0 0 0 0 0 0 0 0 0 0 0 0 0 0 0 0 0 0
0 0 0 0 0 0 0 0 0 0 0 0 0 0 0 0 0 0 0 0 0 0 0 0 0 0 0 0 0 0 0 0 0 0 0 0 0 0 0 0 0 0 0
0 0 0 0 0 0 0 0 0 0 0 0 0 0 0 0 0 0 0 0 0 0 0 0 0 0 0 0 0 0 0 0 0 0 0 0 0 0 0 0 0 0 0
0 0 0 0 0 0 0 0 0 0 0 0 0 0 0 0 0 0 0 0 0 0 0 0 0 0 0 0 0 0 0 0 0 0 0 0 0 0 0 0 0 0 0
0 0 0 0 0 0 0 0 0 0 0 0 0 0 0 0 0 0 0 0 0 0 0 0 0 0 0 0 0 0 0 0 0 0 0 0 0 0 0 0 0 0 0
0 0 0 0 0 0 0 0 0 0 0 0 0 0 0 0 0 0 0 0 0 0 0 0 0 0 0 0 0 0 0 0 0 0 0 0 0 0 0 0 0 0 0
0 0 0 0 0 0 0 0 0 0 0 0 0 0 0 0 0 0 0 0 0 0 0 0 0 0 0 0 0 0 0 0 0 0 0 0 0 0 0 0 0 0 0
0 0 0 0 0 0 0 0 0 0 0 0 0 0 0 0 0 0 0 0 0 0 0 0 0 0 0 0 0 0 0 0 0 0 0 0 0 0 0 0 0 0 0
0 0 0 0 0 0 0 0 0 0 0 0 0 0 0 0 0 0 0 0 0 0 0 0 0 0 0 0 0 0 0 0 0 0 0 0 0 0 0 0 0 0 0
0 0 0 0 0 0 0 0 0 0 0 0 0 0 0 0 0 0 0 0 0 0 0 0 0 0 0 0 0 0 0 0 0 0 0 0 0 0 0 0 0 0 0
0 0 0 0 0 0 0 0 0 0 0 0 0 0 0 0 0 0 0 0 0 0 0 0 0 0 0 0 0 0 0 0 0 0 0 0 0 0 0 0 0 0 0
0 0 0 0 0 0 0 0 0 0 0 0 0 0 0 0 0 0 0 0 0 0 0 0 0 0 0 0 0 0 0 0 0 0 0 0 0 0 0 0 0 0 0

GEFSMA_con_cape1000_180.txt.gz
Probability
48 42 48 58 39 35 45 58 55 42 45 39 32 26 29 23 26 26 42 55 58 48 48 52 52 55 58 55 55 48 58 58 52 61 55 55 48 45 48 48 52 39 52
55 52 55 58 52 45 45 52 48 52 55 52 39 32 29 23 26 45 39 48 55 45 48 52 48 52 55 52 45 48 52 48 48 48 45 48 45 39 42 39 52 45 39
61 61 55 58 48 45 55 58 52 55 52 48 45 35 32 32 29 32 29 42 39 45 52 52 48 48 45 48 45 52 52 45 42 39 39 35 32 29 35 35 42 42 35
58 58 58 52 52 42 45 45 45 45 45 52 48 48 29 35 32 35 26 29 39 19 26 39 39 39 35 32 42 42 39 42 32 29 32 32 29 26 29 39 32 32 32
42 42 42 39 39 35 39 32 35 48 35 45 39 35 23 29 29 19 26 29 42 42 29 32 29 19 19 29 35 29 35 35 26 23 23 26 26 29 26 26 23 23 19
32 35 35 35 29 32 35 39 42 42 39 42 13 10 32 32 26 23 26 26 39 35 26 16 26 16 19 23 26 26 23 29 29 29 19 23 23 23 19 13 16 23 16
26 23 26 29 29 32 29 32 32 26 32 32 35 23 26 13 23 29 19 26 13 23 23 26 19 26 26 19 19 16 6 13 16 13 19 19 19 16 13 16 13 19 19
26 13 23 23 23 29 29 19 23 23 26 32 32 26 16 13 13 0 6 13 16 16 10 13 13 16 23 16 10 6 6 10 6 6 10 10 13 19 19 13 16 10 10
19 23 13 16 19 19 23 23 23 23 26 32 26 16 6 0 6 6 6 6 13 16 19 16 13 16 23 23 16 3 10 3 3 3 10 6 6 10 13 13 16 13 10
16 13 13 10 16 10 16 16 13 19 26 23 19 19 16 13 3 3 6 3 10 13 13 3 3 10 13 19 16 3 0 0 0 3 6 10 10 10 10 10 6 6 6
16 16 13 16 19 19 19 19 19 23 23 16 13 10 10 13 10 6 0 3 6 6 10 10 10 10 6 10 26 3 0 0 0 0 0 0 0 3 3 3 0 3 3
10 13 13 19 19 19 19 16 16 16 19 19 16 13 13 6 6 6 10 6 10 3 10 10 10 10 10 10 3 3 0 0 0 0 0 0 0 3 3 0 0 0 3
10 13 13 19 19 19 19 16 16 16 13 13 16 13 13 10 10 10 3 3 3 0 3 6 6 6 10 6 6 0 0 0 0 0 0 0 0 0 3 3 0 3 6
10 10 13 13 13 19 16 16 13 13 13 13 10 10 13 10 3 3 3 6 3 0 0 3 6 6 6 3 3 0 0 0 0 0 0 0 0 0 0 0 0 0 0
6 3 6 6 10 13 13 13 16 13 13 13 10 10 6 10 6 6 0 3 10 3 3 3 3 3 6 6 3 0 0 0 0 0 0 0 0 0 0 0 0 0 0
6 6 6 6 6 6 6 10 10 6 6 6 6 6 3 3 3 3 3 3 3 6 3 0 0 0 3 0 0 0 0 0 0 0 0 0 0 0 0 0 0 0 0
6 6 6 3 0 6 6 6 3 6 3 3 3 0 0 0 0 3 3 3 3 0 0 0 0 0 0 0 0 0 0 3 0 0 0 0 0 0 0 0 0 0 0
6 6 3 0 0 0 3 3 3 3 3 0 0 0 0 0 0 3 3 0 3 0 0 0 0 0 0 0 0 0 0 0 3 0 0 0 0 0 0 0 0 0 0
3 3 3 0 0 0 0 0 3 0 0 0 0 0 0 0 0 0 3 0 0 0 0 0 0 0 0 0 0 0 0 0 0 0 0 0 0 0 0 0 0 0 0
6 3 0 0 0 0 0 0 0 0 0 0 0 0 0 0 0 0 0 0 0 0 0 0 0 0 0 0 0 0 0 0 0 0 0 0 0 0 0 0 0 0 0
6 3 3 0 0 0 0 0 0 0 0 0 0 0 0 0 0 0 0 0 0 0 0 0 0 0 0 0 0 0 0 0 0 0 0 0 0 0 0 0 0 0 0
0 0 0 0 0 0 0 0 0 0 0 0 0 0 0 0 0 0 0 0 0 0 0 0 3 3 0 0 0 0 0 0 0 0 3 0 0 0 0 0 0 0 0
0 0 0 3 0 0 0 0 0 0 0 0 0 0 0 0 0 0 0 0 0 0 0 0 0 0 0 0 3 0 6 0 0 3 3 3 3 3 3 0 0 0 0
3 3 3 3 3 0 0 0 0 0 0 0 0 0 0 0 0 0 0 0 0 0 0 0 3 3 3 3 3 3 6 6 3 3 0 0 0 0 0 0 0 0 0
3 3 3 3 3 0 0 0 0 0 0 0 0 0 0 0 0 0 0 0 3 3 0 0 0 0 0 0 0 3 3 0 0 0 0 0 0 0 0 0 0 0 0
3 3 3 3 3 0 0 0 0 0 0 0 0 0 0 0 0 0 0 0 0 0 0 0 0 0 0 0 0 0 0 0 0 0 3 3 0 0 0 0 3 3 0

GEFSMA_con_cape1000_186.txt.gz
Probability
65 61 58 61 58 52 52 48 55 52 42 42 39 32 39 35 29 26 29 58 58 58 58 48 55 65 61 65 68 68 71 65 68 65 58 58 65 65 61 65 61 55 55
65 65 61 68 58 58 55 52 45 52 58 45 42 45 45 29 35 39 39 39 42 48 55 55 52 55 61 58 58 61 61 61 58 55 58 55 58 55 52 48 45 45 48
55 52 52 55 58 55 48 48 48 48 42 42 48 45 39 35 29 32 32 26 35 42 45 48 52 55 58 52 48 48 58 58 55 55 52 52 52 48 55 48 52 42 42
52 55 52 52 48 45 48 45 42 39 29 29 29 29 6 19 23 39 39 23 26 26 42 48 52 55 48 45 42 42 45 45 45 45 45 42 45 42 35 32 42 32 29
45 48 42 45 39 35 39 29 42 35 23 13 10 6 6 13 16 13 19 26 29 35 35 35 42 48 45 45 48 42 42 39 42 45 35 39 39 39 26 26 26 16 19
35 42 39 39 35 32 35 39 32 29 19 16 6 0 0 0 13 16 23 16 29 26 32 19 29 29 42 45 52 48 39 45 52 48 39 39 48 32 29 13 10 10 13
35 39 39 39 35 32 32 26 26 19 16 23 10 3 0 0 0 13 16 19 13 16 19 23 13 13 10 29 35 39 35 35 48 42 39 39 39 32 29 23 10 10 6
35 35 35 39 39 39 32 29 23 23 19 16 6 3 0 3 0 0 6 10 6 10 10 3 10 13 10 10 10 26 32 35 32 32 29 32 35 19 23 23 16 10 6
32 32 29 39 32 29 26 26 26 19 13 16 13 3 0 0 3 6 3 3 3 6 6 3 6 13 10 6 10 13 16 16 26 26 32 29 16 16 13 13 13 10 6
26 26 26 29 29 29 26 29 26 19 16 13 13 10 6 3 0 0 3 0 6 3 3 0 0 10 10 6 10 6 6 6 10 23 23 23 13 6 6 6 10 6 6
23 16 19 26 29 26 19 19 23 19 23 19 13 10 6 3 0 0 0 0 0 0 0 0 6 6 10 10 10 0 0 0 0 6 10 13 13 6 10 10 3 3 3
16 13 10 16 16 19 16 16 16 16 16 13 13 3 3 3 0 0 0 0 0 0 0 0 3 6 10 3 0 0 0 0 0 0 0 0 3 3 3 3 6 3 3
13 6 6 6 10 16 16 19 16 13 13 10 10 10 6 6 3 0 0 0 0 0 0 0 3 3 0 0 3 0 0 0 0 0 0 0 0 3 3 0 0 3 3
6 6 10 6 6 10 6 13 13 13 10 10 6 6 6 6 3 0 0 0 0 0 0 0 3 3 3 3 0 0 0 0 0 0 0 0 0 0 0 0 0 0 0
6 6 6 6 6 6 6 6 6 6 10 6 6 6 6 3 3 3 0 0 0 0 0 0 0 0 3 3 0 0 0 0 0 0 0 0 0 0 0 0 0 0 0
6 6 6 6 6 6 6 6 6 6 6 10 6 6 3 3 3 3 3 0 0 0 0 0 0 3 0 0 0 0 0 0 0 0 0 0 0 0 0 0 0 0 0
6 6 6 6 6 6 6 6 6 3 3 3 6 3 6 3 3 3 3 0 0 0 0 0 0 0 0 0 0 0 0 0 0 0 0 0 0 0 0 0 0 0 0
6 6 6 6 6 6 6 6 3 3 0 0 0 3 3 3 3 0 0 0 0 0 0 0 0 0 0 0 0 0 0 0 0 0 0 0 0 0 0 0 0 0 0
6 6 6 6 6 6 6 6 3 0 0 0 3 0 3 0 0 0 0 0 0 0 0 0 0 0 0 0 0 0 0 0 0 0 0 0 0 0 0 0 0 0 0
6 6 6 6 6 3 3 3 3 0 0 3 3 3 3 0 0 0 0 0 0 0 0 0 0 0 0 0 0 0 0 0 0 0 0 0 0 0 0 0 0 0 0
6 6 6 3 0 3 3 3 0 0 0 0 3 3 0 0 0 0 0 0 0 0 0 0 0 0 0 0 0 0 0 0 0 0 0 0 0 0 0 0 0 0 0
10 3 3 0 0 3 0 0 0 0 0 0 3 3 0 0 0 0 0 0 0 0 0 0 0 0 0 0 3 0 0 0 0 0 0 0 0 0 0 0 0 0 0
6 3 3 3 0 0 0 0 0 0 0 0 0 3 0 0 0 0 0 0 0 0 0 0 0 0 0 0 3 0 0 0 0 0 0 0 0 0 0 0 0 0 0
0 0 3 3 3 3 0 0 0 0 0 0 0 3 3 3 0 0 0 0 0 0 0 0 0 0 3 3 3 0 0 0 0 0 0 0 0 0 0 0 0 0 0
0 0 0 3 3 3 0 0 0 0 0 0 0 0 0 3 0 0 0 0 0 3 0 0 0 0 0 0 0 0 0 0 0 0 0 0 0 0 0 0 0 0 0
0 0 0 0 6 3 0 0 0 0 0 0 0 3 0 0 0 0 0 0 0 0 0 0 0 0 0 0 0 0 0 0 0 0 0 0 0 0 0 0 0 0 0